Location: Cheyres
(46.8153°N, 6.7877°E)
Time: 02:00:06
(UTC+00:00)

Tiros 1 - Pass Details

Date: 04 June 2022
Orbit: 629 x 663 km, 48.4° (Epoch: 05 July)

Event Time Altitude Azimuth Distance (km) Brightness Sun altitude
Rises 20:37:12 0° 225° (SW) 2,907 10.5 -10.3°
Reaches altitude 10° 20:39:36 10° 218° (SW) 2,000 9.6 -10.6°
Maximum altitude 20:43:55 41° 149° (SSE) 914 7.5 -11.1°
Drops below altitude 10° 20:48:14 10° 79° (E) 2,008 9.4 -11.5°
Sets 20:50:39 0° 72° (ENE) 2,920 10.3 -11.8°
